Retour au catalogue

GLOBALSTAR M048

ActifCommunicationsUNKNOWN
NORAD 25872·PAYLOAD·🇺🇸 United States

Lancé Jul 25, 1999 depuis Cape Canaveral Space Force Station

Loading…

Prochains Passages (prochaines 24 heures)

TLE

FraisSource: Space-Track

Époque: Sep 14, 2026, 11:08 UTC

1 25872U 99041A   26257.46434984 -.00000050  00000-0  53920-3 0  9999
2 25872  51.9407 337.5958 0012993 250.3206 122.5559 11.33865391176513

Suivez GLOBALSTAR M048 en temps réel avec AllMySat

Download on the App Store